Location: Asbacherhof
(48.8543°N, 10.7903°E)
Time: 22:43:55
(UTC+00:00)

Cosmos 1536 Rocket - Pass Details

Date: 26 May 2022
Orbit: 604 x 633 km, 82.5° (Epoch: 26 June)

Event Time Altitude Azimuth Distance (km) Brightness Sun altitude
Exits shadow 02:08:05 13° 213° (SSW) 1,777 5.2 -10.0°
Maximum altitude 02:11:46 46° 284° (WNW) 840 4.0 -9.6°
Drops below altitude 10° 02:16:01 10° 359° (N) 1,989 6.9 -9.1°
Sets 02:18:19 0° 5° (N) 2,895 7.9 -8.9°
